TimeCST,TemperatureF,Dew PointF,Humidity,Sea Level PressureIn,VisibilityMPH,Wind Direction,Wind SpeedMPH,Gust SpeedMPH,PrecipitationIn,Events,Conditions,WindDirDegrees,DateUTC
12:08 AM,37.4,35.6,93,30.21,2.0,Calm,Calm,-,N/A,,Partly Cloudy,0,2012-11-21 06:08:00
12:16 AM,37.4,35.6,93,30.22,2.0,Calm,Calm,-,N/A,,Mostly Cloudy,0,2012-11-21 06:16:00
12:22 AM,37.4,35.6,93,30.21,0.8,Calm,Calm,-,N/A,,Mist,0,2012-11-21 06:22:00
12:28 AM,35.6,35.6,100,30.22,0.2,Calm,Calm,-,N/A,Fog,Fog,0,2012-11-21 06:28:00
12:46 AM,37.4,37.4,100,30.21,0.2,Calm,Calm,-,N/A,Fog,Fog,0,2012-11-21 06:46:00
12:54 AM,39.0,37.9,96,30.22,0.2,Calm,Calm,-,N/A,Fog,Fog,0,2012-11-21 06:54:00
1:44 AM,41.0,39.2,93,30.21,0.2,Calm,Calm,-,N/A,Fog,Fog,0,2012-11-21 07:44:00
1:54 AM,41.0,39.9,96,30.22,0.2,Calm,Calm,-,N/A,Fog,Fog,0,2012-11-21 07:54:00
2:11 AM,42.8,41.0,93,30.22,0.2,Calm,Calm,-,N/A,Fog,Fog,0,2012-11-21 08:11:00
2:54 AM,41.0,39.9,96,30.23,0.2,Calm,Calm,-,N/A,Fog,Fog,0,2012-11-21 08:54:00
3:54 AM,39.9,39.0,97,30.23,0.2,Calm,Calm,-,N/A,Fog,Fog,0,2012-11-21 09:54:00
4:54 AM,39.0,37.9,96,30.25,0.2,Calm,Calm,-,N/A,Fog,Fog,0,2012-11-21 10:54:00
5:54 AM,39.0,37.9,96,30.26,0.2,Calm,Calm,-,N/A,Fog,Fog,0,2012-11-21 11:54:00
6:54 AM,37.9,37.0,97,30.27,0.2,Calm,Calm,-,N/A,Fog,Fog,0,2012-11-21 12:54:00
7:54 AM,39.0,37.9,96,30.29,0.2,Calm,Calm,-,N/A,Fog,Fog,0,2012-11-21 13:54:00
8:54 AM,39.9,39.9,100,30.29,0.2,SE,3.5,-,N/A,Fog,Fog,140,2012-11-21 14:54:00
9:39 AM,42.8,41.0,93,30.29,0.2,Calm,Calm,-,N/A,Fog,Fog,0,2012-11-21 15:39:00
9:54 AM,42.1,41.0,96,30.30,0.2,Calm,Calm,-,N/A,Fog,Fog,0,2012-11-21 15:54:00
10:23 AM,44.6,42.8,93,30.29,0.2,Calm,Calm,-,N/A,Fog,Fog,0,2012-11-21 16:23:00
10:54 AM,44.1,43.0,96,30.30,0.2,Calm,Calm,-,N/A,Fog,Fog,0,2012-11-21 16:54:00
11:22 AM,44.6,44.6,100,30.27,0.5,Calm,Calm,-,N/A,Fog,Fog,0,2012-11-21 17:22:00
11:38 AM,46.4,44.6,93,30.26,3.0,Calm,Calm,-,N/A,,Clear,0,2012-11-21 17:38:00
11:54 AM,48.9,46.0,90,30.27,6.0,Calm,Calm,-,N/A,,Clear,0,2012-11-21 17:54:00
12:54 PM,57.9,48.0,70,30.23,6.0,Calm,Calm,-,N/A,,Haze,0,2012-11-21 18:54:00
1:54 PM,61.0,46.9,60,30.21,10.0,Calm,Calm,-,N/A,,Clear,0,2012-11-21 19:54:00
2:54 PM,64.0,46.9,54,30.19,10.0,Calm,Calm,-,N/A,,Clear,0,2012-11-21 20:54:00
3:54 PM,62.1,45.0,53,30.18,10.0,South,3.5,-,N/A,,Clear,190,2012-11-21 21:54:00
4:54 PM,54.0,45.0,72,30.17,10.0,Calm,Calm,-,N/A,,Clear,0,2012-11-21 22:54:00
5:54 PM,52.0,45.0,77,30.17,10.0,SE,5.8,-,N/A,,Clear,140,2012-11-21 23:54:00
6:54 PM,54.0,46.9,77,30.17,10.0,SE,4.6,-,N/A,,Clear,140,2012-11-22 00:54:00
7:54 PM,50.0,45.0,83,30.16,5.0,Calm,Calm,-,N/A,,Haze,0,2012-11-22 01:54:00
8:54 PM,48.9,44.1,83,30.15,6.0,SSE,5.8,-,N/A,,Haze,150,2012-11-22 02:54:00
9:54 PM,41.0,39.0,93,30.16,3.0,Calm,Calm,-,N/A,,Clear,0,2012-11-22 03:54:00
10:54 PM,46.0,41.0,83,30.15,6.0,South,4.6,-,N/A,,Haze,170,2012-11-22 04:54:00
11:54 PM,52.0,44.1,74,30.13,10.0,South,6.9,-,N/A,,Clear,180,2012-11-22 05:54:00